����������;��������(kWh)
2018-05-14 00:00;75,45
2018-05-14 00:15;74,35
2018-05-14 00:30;74,55
2018-05-14 00:45;76,6
2018-05-14 01:00;74,2
2018-05-14 01:15;74,4
2018-05-14 01:30;74,8
2018-05-14 01:45;74,4
2018-05-14 02:00;75,6
2018-05-14 02:15;74,75
2018-05-14 02:30;73,4
2018-05-14 02:45;74,45
2018-05-14 03:00;72,85
2018-05-14 03:15;72,95
2018-05-14 03:30;74,9
2018-05-14 03:45;74,25
2018-05-14 04:00;75,35
2018-05-14 04:15;74
2018-05-14 04:30;73,95
2018-05-14 04:45;74,65
2018-05-14 05:00;75,25
2018-05-14 05:15;75,7
2018-05-14 05:30;76,95
2018-05-14 05:45;76,8
2018-05-14 06:00;76,25
2018-05-14 06:15;74,85
2018-05-14 06:30;71,55
2018-05-14 06:45;69,9
2018-05-14 07:00;71,05
2018-05-14 07:15;73,2
2018-05-14 07:30;76
2018-05-14 07:45;77,2
2018-05-14 08:00;79
2018-05-14 08:15;81,8
2018-05-14 08:30;84,4
2018-05-14 08:45;86,3
2018-05-14 09:00;94,8
2018-05-14 09:15;149,7
2018-05-14 09:30;131,35
2018-05-14 09:45;120,05
2018-05-14 10:00;118,4
2018-05-14 10:15;127,2
2018-05-14 10:30;127,9
2018-05-14 10:45;133,9
2018-05-14 11:00;132,55
2018-05-14 11:15;138,7
2018-05-14 11:30;139,1
2018-05-14 11:45;145,05
2018-05-14 12:00;143,2
2018-05-14 12:15;146,65
2018-05-14 12:30;150,05
2018-05-14 12:45;153,6
2018-05-14 13:00;151,6
2018-05-14 13:15;157,8
2018-05-14 13:30;155,35
2018-05-14 13:45;155,95
2018-05-14 14:00;157,6
2018-05-14 14:15;154,95
2018-05-14 14:30;150,1
2018-05-14 14:45;148,5
2018-05-14 15:00;148,35
2018-05-14 15:15;150,4
2018-05-14 15:30;148,35
2018-05-14 15:45;143,6
2018-05-14 16:00;141,25
2018-05-14 16:15;125
2018-05-14 16:30;128,1
2018-05-14 16:45;126,4
2018-05-14 17:00;123,85
2018-05-14 17:15;116,9
2018-05-14 17:30;119,55
2018-05-14 17:45;119,65
2018-05-14 18:00;117,35
2018-05-14 18:15;112,9
2018-05-14 18:30;117,95
2018-05-14 18:45;120,15
2018-05-14 19:00;114,25
2018-05-14 19:15;116,55
2018-05-14 19:30;112,5
2018-05-14 19:45;111,4
2018-05-14 20:00;109,65
2018-05-14 20:15;103,85
2018-05-14 20:30;104,4
2018-05-14 20:45;107,5
2018-05-14 21:00;104,55
2018-05-14 21:15;100,15
2018-05-14 21:30;100,6
2018-05-14 21:45;92,7
2018-05-14 22:00;91,95
2018-05-14 22:15;88,45
2018-05-14 22:30;86,05
2018-05-14 22:45;86,95
2018-05-14 23:00;84,9
2018-05-14 23:15;80,8
2018-05-14 23:30;81,65
2018-05-14 23:45;81,65
2018-05-15 00:00;79,85
2018-05-15 00:15;78,9
2018-05-15 00:30;78,9
2018-05-15 00:45;79,95
2018-05-15 01:00;78,25
2018-05-15 01:15;80,9
2018-05-15 01:30;81,8
2018-05-15 01:45;79,35
2018-05-15 02:00;81,1
2018-05-15 02:15;81,45
2018-05-15 02:30;80,4
2018-05-15 02:45;80,35
2018-05-15 03:00;80
2018-05-15 03:15;79
2018-05-15 03:30;81,3
2018-05-15 03:45;80,45
2018-05-15 04:00;79,8
2018-05-15 04:15;80,8
2018-05-15 04:30;79,55
2018-05-15 04:45;76,45
2018-05-15 05:00;78,45
2018-05-15 05:15;77
2018-05-15 05:30;78,1
2018-05-15 05:45;83,2
2018-05-15 06:00;81,25
2018-05-15 06:15;80,55
2018-05-15 06:30;76,75
2018-05-15 06:45;73
2018-05-15 07:00;72,85
2018-05-15 07:15;74,65
2018-05-15 07:30;73,1
2018-05-15 07:45;79,3
2018-05-15 08:00;81,95
2018-05-15 08:15;82,05
2018-05-15 08:30;86,2
2018-05-15 08:45;91,15
2018-05-15 09:00;94,5
2018-05-15 09:15;150,5
2018-05-15 09:30;132,8
2018-05-15 09:45;116,2
2018-05-15 10:00;121,5
2018-05-15 10:15;131,15
2018-05-15 10:30;131,15
2018-05-15 10:45;138,65
2018-05-15 11:00;143,05
2018-05-15 11:15;149,95
2018-05-15 11:30;147,5
2018-05-15 11:45;155,75
2018-05-15 12:00;150,6
2018-05-15 12:15;160,3
2018-05-15 12:30;158,7
2018-05-15 12:45;164,1
2018-05-15 13:00;166,2
2018-05-15 13:15;172,7
2018-05-15 13:30;174,45
2018-05-15 13:45;171,05
2018-05-15 14:00;167,6
2018-05-15 14:15;169,2
2018-05-15 14:30;169,9
2018-05-15 14:45;159,9
2018-05-15 15:00;162,45
2018-05-15 15:15;151,5
2018-05-15 15:30;160,3
2018-05-15 15:45;146,45
2018-05-15 16:00;163
2018-05-15 16:15;137,9
2018-05-15 16:30;142,2
2018-05-15 16:45;142,95
2018-05-15 17:00;139,8
2018-05-15 17:15;133,65
2018-05-15 17:30;138,15
2018-05-15 17:45;138,35
2018-05-15 18:00;138,2
2018-05-15 18:15;129,5
2018-05-15 18:30;135
2018-05-15 18:45;133
2018-05-15 19:00;123,6
2018-05-15 19:15;124
2018-05-15 19:30;116,95
2018-05-15 19:45;119,35
2018-05-15 20:00;109,05
2018-05-15 20:15;105,45
2018-05-15 20:30;110,8
2018-05-15 20:45;112,05
2018-05-15 21:00;109,25
2018-05-15 21:15;102,65
2018-05-15 21:30;104,85
2018-05-15 21:45;99,4
2018-05-15 22:00;92,75
2018-05-15 22:15;90,25
2018-05-15 22:30;90,7
2018-05-15 22:45;88,25
2018-05-15 23:00;91,15
2018-05-15 23:15;87,45
2018-05-15 23:30;83,55
2018-05-15 23:45;82,6
2018-05-16 00:00;83,6
2018-05-16 00:15;80,9
2018-05-16 00:30;80,95
2018-05-16 00:45;81
2018-05-16 01:00;79,65
2018-05-16 01:15;78,8
2018-05-16 01:30;78,1
2018-05-16 01:45;75,3
2018-05-16 02:00;76,3
2018-05-16 02:15;76,05
2018-05-16 02:30;77,4
2018-05-16 02:45;75,85
2018-05-16 03:00;75,4
2018-05-16 03:15;76,6
2018-05-16 03:30;75,7
2018-05-16 03:45;75,8
2018-05-16 04:00;75,8
2018-05-16 04:15;76,05
2018-05-16 04:30;75,9
2018-05-16 04:45;75,8
2018-05-16 05:00;77,35
2018-05-16 05:15;77
2018-05-16 05:30;78,3
2018-05-16 05:45;79,8
2018-05-16 06:00;78,65
2018-05-16 06:15;76,55
2018-05-16 06:30;74,95
2018-05-16 06:45;72,05
2018-05-16 07:00;73,5
2018-05-16 07:15;74,1
2018-05-16 07:30;76,75
2018-05-16 07:45;81,25
2018-05-16 08:00;84,6
2018-05-16 08:15;88
2018-05-16 08:30;91,6
2018-05-16 08:45;96,1
2018-05-16 09:00;94,45
2018-05-16 09:15;153,75
2018-05-16 09:30;139,8
2018-05-16 09:45;122,6
2018-05-16 10:00;128,6
2018-05-16 10:15;135,45
2018-05-16 10:30;136,1
2018-05-16 10:45;145,6
2018-05-16 11:00;152,15
2018-05-16 11:15;153,2
2018-05-16 11:30;156,3
2018-05-16 11:45;156,05
2018-05-16 12:00;162
2018-05-16 12:15;162,7
2018-05-16 12:30;164,05
2018-05-16 12:45;168,55
2018-05-16 13:00;163,3
2018-05-16 13:15;170,4
2018-05-16 13:30;172
2018-05-16 13:45;174,35
2018-05-16 14:00;178,65
2018-05-16 14:15;171,3
2018-05-16 14:30;175,9
2018-05-16 14:45;165,15
2018-05-16 15:00;168,2
2018-05-16 15:15;157,65
2018-05-16 15:30;154,75
2018-05-16 15:45;150,1
2018-05-16 16:00;155,6
2018-05-16 16:15;145,1
2018-05-16 16:30;148,05
2018-05-16 16:45;140,75
2018-05-16 17:00;135,7
2018-05-16 17:15;133,55
2018-05-16 17:30;131,15
2018-05-16 17:45;130
2018-05-16 18:00;129,65
2018-05-16 18:15;132,1
2018-05-16 18:30;127,9
2018-05-16 18:45;127,85
2018-05-16 19:00;128,5
2018-05-16 19:15;123,6
2018-05-16 19:30;129,3
2018-05-16 19:45;121,8
2018-05-16 20:00;122,25
2018-05-16 20:15;118,35
2018-05-16 20:30;122,65
2018-05-16 20:45;120,95
2018-05-16 21:00;121,2
2018-05-16 21:15;117,05
2018-05-16 21:30;117,9
2018-05-16 21:45;113,55
2018-05-16 22:00;105
2018-05-16 22:15;107,8
2018-05-16 22:30;102,9
2018-05-16 22:45;103,2
2018-05-16 23:00;98,3
2018-05-16 23:15;97,5
2018-05-16 23:30;95,95
2018-05-16 23:45;98,55
2018-05-17 00:00;95,45
2018-05-17 00:15;97,25
2018-05-17 00:30;94,4
2018-05-17 00:45;93,3
2018-05-17 01:00;93,95
2018-05-17 01:15;92,9
2018-05-17 01:30;92,75
2018-05-17 01:45;94,5
2018-05-17 02:00;94,1
2018-05-17 02:15;94,85
2018-05-17 02:30;87
2018-05-17 02:45;95,7
2018-05-17 03:00;92,25
2018-05-17 03:15;96,3
2018-05-17 03:30;92,75
2018-05-17 03:45;96,35
2018-05-17 04:00;94,05
2018-05-17 04:15;90,05
2018-05-17 04:30;93,85
2018-05-17 04:45;90,05
2018-05-17 05:00;94
2018-05-17 05:15;92,9
2018-05-17 05:30;98
2018-05-17 05:45;95,3
2018-05-17 06:00;94,55
2018-05-17 06:15;96,8
2018-05-17 06:30;89,55
2018-05-17 06:45;88,35
2018-05-17 07:00;89,15
2018-05-17 07:15;89,45
2018-05-17 07:30;90,3
2018-05-17 07:45;91,45
2018-05-17 08:00;91,45
2018-05-17 08:15;95,65
2018-05-17 08:30;97,8
2018-05-17 08:45;106,4
2018-05-17 09:00;111,35
2018-05-17 09:15;117,15
2018-05-17 09:30;119,7
2018-05-17 09:45;130,8
2018-05-17 10:00;131,9
2018-05-17 10:15;140,5
2018-05-17 10:30;147,65
2018-05-17 10:45;155,35
2018-05-17 11:00;158
2018-05-17 11:15;170,4
2018-05-17 11:30;164,9
2018-05-17 11:45;180,6
2018-05-17 12:00;170,85
2018-05-17 12:15;182,75
2018-05-17 12:30;177,6
2018-05-17 12:45;177,8
2018-05-17 13:00;176,25
2018-05-17 13:15;177,75
2018-05-17 13:30;184,5
2018-05-17 13:45;183,45
2018-05-17 14:00;182,2
2018-05-17 14:15;183,8
2018-05-17 14:30;181,65
2018-05-17 14:45;182,3
2018-05-17 15:00;172,35
2018-05-17 15:15;180,9
2018-05-17 15:30;169,6
2018-05-17 15:45;160,8
2018-05-17 16:00;158,85
2018-05-17 16:15;153,25
2018-05-17 16:30;156,25
2018-05-17 16:45;144,1
2018-05-17 17:00;142,3
2018-05-17 17:15;139,6
2018-05-17 17:30;138,8
2018-05-17 17:45;138,2
2018-05-17 18:00;135,8
2018-05-17 18:15;138,05
2018-05-17 18:30;142,65
2018-05-17 18:45;134
2018-05-17 19:00;136,2
2018-05-17 19:15;132,35
2018-05-17 19:30;135,65
2018-05-17 19:45;134,15
2018-05-17 20:00;132,05
2018-05-17 20:15;124,65
2018-05-17 20:30;130,55
2018-05-17 20:45;123,4
2018-05-17 21:00;123,75
2018-05-17 21:15;120,9
2018-05-17 21:30;124,25
2018-05-17 21:45;112,9
2018-05-17 22:00;111,5
2018-05-17 22:15;106,3
2018-05-17 22:30;103,9
2018-05-17 22:45;100,95
2018-05-17 23:00;103,8
2018-05-17 23:15;97
2018-05-17 23:30;97,95
2018-05-17 23:45;97,8
2018-05-18 00:00;97,25
2018-05-18 00:15;94,3
2018-05-18 00:30;93,6
2018-05-18 00:45;94,8
2018-05-18 01:00;95,65
2018-05-18 01:15;93,1
2018-05-18 01:30;92,55
2018-05-18 01:45;95,65
2018-05-18 02:00;92,75
2018-05-18 02:15;96,6
2018-05-18 02:30;92,15
2018-05-18 02:45;92,45
2018-05-18 03:00;92,6
2018-05-18 03:15;86,35
2018-05-18 03:30;93,1
2018-05-18 03:45;87,25
2018-05-18 04:00;91,8
2018-05-18 04:15;92,3
2018-05-18 04:30;93,9
2018-05-18 04:45;90,05
2018-05-18 05:00;92,65
2018-05-18 05:15;90,3
2018-05-18 05:30;94,4
2018-05-18 05:45;93,85
2018-05-18 06:00;94,65
2018-05-18 06:15;93,45
2018-05-18 06:30;90,8
2018-05-18 06:45;88,05
2018-05-18 07:00;88,2
2018-05-18 07:15;89,5
2018-05-18 07:30;83,95
2018-05-18 07:45;92,95
2018-05-18 08:00;91,5
2018-05-18 08:15;97,6
2018-05-18 08:30;97,85
2018-05-18 08:45;105,3
2018-05-18 09:00;105,7
2018-05-18 09:15;113,8
2018-05-18 09:30;115,4
2018-05-18 09:45;126,9
2018-05-18 10:00;129
2018-05-18 10:15;140,3
2018-05-18 10:30;138,5
2018-05-18 10:45;142,65
2018-05-18 11:00;148,95
2018-05-18 11:15;155,5
2018-05-18 11:30;163,35
2018-05-18 11:45;170,95
2018-05-18 12:00;171,1
2018-05-18 12:15;166,7
2018-05-18 12:30;171,7
2018-05-18 12:45;175,15
2018-05-18 13:00;175,65
2018-05-18 13:15;179,25
2018-05-18 13:30;180
2018-05-18 13:45;177,35
2018-05-18 14:00;178,55
2018-05-18 14:15;180,35
2018-05-18 14:30;186,65
2018-05-18 14:45;174,15
2018-05-18 15:00;173,45
2018-05-18 15:15;161,3
2018-05-18 15:30;170,9
2018-05-18 15:45;160,25
2018-05-18 16:00;157
2018-05-18 16:15;146,35
2018-05-18 16:30;146,6
2018-05-18 16:45;140,25
2018-05-18 17:00;136,55
2018-05-18 17:15;128,85
2018-05-18 17:30;129
2018-05-18 17:45;129,45
2018-05-18 18:00;130,3
2018-05-18 18:15;123,35
2018-05-18 18:30;127,1
2018-05-18 18:45;122,85
2018-05-18 19:00;117,95
2018-05-18 19:15;118,4
2018-05-18 19:30;119,05
2018-05-18 19:45;118,75
2018-05-18 20:00;114,25
2018-05-18 20:15;111,35
2018-05-18 20:30;119,85
2018-05-18 20:45;117,65
2018-05-18 21:00;116,6
2018-05-18 21:15;113,5
2018-05-18 21:30;112,95
2018-05-18 21:45;105,15
2018-05-18 22:00;108,8
2018-05-18 22:15;93,5
2018-05-18 22:30;92,5
2018-05-18 22:45;92,5
2018-05-18 23:00;91,75
2018-05-18 23:15;89,1
2018-05-18 23:30;90,05
2018-05-18 23:45;88,4
2018-05-19 00:00;86,3
2018-05-19 00:15;86,7
2018-05-19 00:30;87
2018-05-19 00:45;85,2
2018-05-19 01:00;85,4
2018-05-19 01:15;89,35
2018-05-19 01:30;89,85
2018-05-19 01:45;89,45
2018-05-19 02:00;89
2018-05-19 02:15;87,55
2018-05-19 02:30;89,3
2018-05-19 02:45;90
2018-05-19 03:00;88,6
2018-05-19 03:15;85,6
2018-05-19 03:30;87,2
2018-05-19 03:45;85,5
2018-05-19 04:00;86,2
2018-05-19 04:15;86,95
2018-05-19 04:30;86,3
2018-05-19 04:45;85,95
2018-05-19 05:00;86,75
2018-05-19 05:15;86,7
2018-05-19 05:30;82,1
2018-05-19 05:45;85,15
2018-05-19 06:00;83,9
2018-05-19 06:15;83,4
2018-05-19 06:30;82,25
2018-05-19 06:45;78
2018-05-19 07:00;77,65
2018-05-19 07:15;75,6
2018-05-19 07:30;73,65
2018-05-19 07:45;73,65
2018-05-19 08:00;75,2
2018-05-19 08:15;127,7
2018-05-19 08:30;107,25
2018-05-19 08:45;86,55
2018-05-19 09:00;85,9
2018-05-19 09:15;89
2018-05-19 09:30;91,45
2018-05-19 09:45;87,9
2018-05-19 10:00;91,5
2018-05-19 10:15;90,4
2018-05-19 10:30;87,25
2018-05-19 10:45;94,95
2018-05-19 11:00;89
2018-05-19 11:15;94,35
2018-05-19 11:30;90,4
2018-05-19 11:45;96,85
2018-05-19 12:00;91,95
2018-05-19 12:15;102,65
2018-05-19 12:30;92,75
2018-05-19 12:45;97,9
2018-05-19 13:00;97
2018-05-19 13:15;93,25
2018-05-19 13:30;94,95
2018-05-19 13:45;93,3
2018-05-19 14:00;93,85
2018-05-19 14:15;90,65
2018-05-19 14:30;94,1
2018-05-19 14:45;94
2018-05-19 15:00;95,3
2018-05-19 15:15;95,8
2018-05-19 15:30;98,45
2018-05-19 15:45;101,85
2018-05-19 16:00;100,6
2018-05-19 16:15;97,25
2018-05-19 16:30;105,45
2018-05-19 16:45;102,55
2018-05-19 17:00;104,95
2018-05-19 17:15;106,2
2018-05-19 17:30;108,2
2018-05-19 17:45;112,9
2018-05-19 18:00;109,4
2018-05-19 18:15;100,25
2018-05-19 18:30;96,95
2018-05-19 18:45;101,3
2018-05-19 19:00;99
2018-05-19 19:15;98,65
2018-05-19 19:30;100,7
2018-05-19 19:45;101,7
2018-05-19 20:00;105,55
2018-05-19 20:15;101,4
2018-05-19 20:30;102,7
2018-05-19 20:45;104,1
2018-05-19 21:00;101,4
2018-05-19 21:15;99,6
2018-05-19 21:30;98,4
2018-05-19 21:45;94,5
2018-05-19 22:00;93,35
2018-05-19 22:15;91,1
2018-05-19 22:30;89,2
2018-05-19 22:45;88,75
2018-05-19 23:00;90,25
2018-05-19 23:15;84,25
2018-05-19 23:30;84,15
2018-05-19 23:45;84,5
2018-05-20 00:00;81,7
2018-05-20 00:15;82,1
2018-05-20 00:30;80,7
2018-05-20 00:45;79,95
2018-05-20 01:00;80,35
2018-05-20 01:15;81,75
2018-05-20 01:30;79,3
2018-05-20 01:45;79,65
2018-05-20 02:00;79,2
2018-05-20 02:15;81
2018-05-20 02:30;79,1
2018-05-20 02:45;80,75
2018-05-20 03:00;82,3
2018-05-20 03:15;79,5
2018-05-20 03:30;80,5
2018-05-20 03:45;82,1
2018-05-20 04:00;80,7
2018-05-20 04:15;81,2
2018-05-20 04:30;84,85
2018-05-20 04:45;81,95
2018-05-20 05:00;82,5
2018-05-20 05:15;82,7
2018-05-20 05:30;83,7
2018-05-20 05:45;84,5
2018-05-20 06:00;88,65
2018-05-20 06:15;85,3
2018-05-20 06:30;82,25
2018-05-20 06:45;79,75
2018-05-20 07:00;77,7
2018-05-20 07:15;77,8
2018-05-20 07:30;76,15
2018-05-20 07:45;76,35
2018-05-20 08:00;74,75
2018-05-20 08:15;76,15
2018-05-20 08:30;76,25
2018-05-20 08:45;79
2018-05-20 09:00;78,9
2018-05-20 09:15;79,3
2018-05-20 09:30;76,4
2018-05-20 09:45;74,1
2018-05-20 10:00;74,45
2018-05-20 10:15;75
2018-05-20 10:30;75,9
2018-05-20 10:45;76,1
2018-05-20 11:00;76,25
2018-05-20 11:15;79,05
2018-05-20 11:30;79
2018-05-20 11:45;76,2
2018-05-20 12:00;77,95
2018-05-20 12:15;75,8
2018-05-20 12:30;77,4
2018-05-20 12:45;78,25
2018-05-20 13:00;78,55
2018-05-20 13:15;79,9
2018-05-20 13:30;84
2018-05-20 13:45;89,8
2018-05-20 14:00;89,05
2018-05-20 14:15;88,05
2018-05-20 14:30;91,9
2018-05-20 14:45;89,4
2018-05-20 15:00;87,65
2018-05-20 15:15;86,05
2018-05-20 15:30;86,45
2018-05-20 15:45;83,2
2018-05-20 16:00;83,75
2018-05-20 16:15;85,85
2018-05-20 16:30;82,7
2018-05-20 16:45;82,8
2018-05-20 17:00;88,2
2018-05-20 17:15;82,5
2018-05-20 17:30;82,8
2018-05-20 17:45;84,25
2018-05-20 18:00;82,7
2018-05-20 18:15;83,05
2018-05-20 18:30;84,2
2018-05-20 18:45;85,55
2018-05-20 19:00;86,1
2018-05-20 19:15;85,35
2018-05-20 19:30;83,45
2018-05-20 19:45;87,5
2018-05-20 20:00;88,05
2018-05-20 20:15;88,35
2018-05-20 20:30;88,1
2018-05-20 20:45;92,65
2018-05-20 21:00;99
2018-05-20 21:15;94,55
2018-05-20 21:30;95,15
2018-05-20 21:45;94,25
2018-05-20 22:00;91,1
2018-05-20 22:15;88,75
2018-05-20 22:30;89,5
2018-05-20 22:45;87,45
2018-05-20 23:00;88,3
2018-05-20 23:15;87,8
2018-05-20 23:30;84,1
2018-05-20 23:45;84,15

